Regional Weather Roundup
Issued by NWS

Home | Current Version | Previous Version | Graphics & Text | Print | Product List | Glossary On
Versions: 1 2 3 4 5 6 7 8 9 10 11 12 13 14 15 16 17 18 19 20 21 22 23 24 25 26 27 28 29 30 31 32 33 34 35 36 37 38 39 40 41 42 43 44 45 46 47 48 49 50
000
ASUS43 KIND 241209
RWRIN

WEATHER ROUNDUP FOR INDIANA
NATIONAL WEATHER SERVICE INDIANAPOLIS IN
800 AM EDT FRI MAR 24 2017

NOTE: "FAIR" INDICATES FEW OR NO CLOUDS BELOW 12,000 FEET WITH NO
SIGNIFICANT WEATHER AND/OR OBSTRUCTIONS TO VISIBILITY.

* - STATION DOES NOT REPORT WEATHER SUCH AS PRECIPITATION OR FOG.

+ - STATION NOT QUALITY CONTROLLED BY THE NATIONAL WEATHER SERVICE.
    USE DATA WITH CAUTION...ESPECIALLY DEWPOINT AND RELATIVE
    HUMIDITY OBSERVATIONS.

INZ001>003-010>013-019-020-241300-
NORTHWEST INDIANA

CITY           SKY/WX    TMP DP  RH WIND       PRES   REMARKS
GARY /AIRPORT/ MOCLDY    54  41  62 S14G26    29.96R
KNOX *+        PTCLDY    50  25  37 S14       30.00R
LA PORTE +     PTCLDY    48  41  75 S8        30.00R
6HR MIN TEMP:  44; 6HR MAX TEMP:  48;

MICHIGAN CITY+ PTCLDY    54  43  66 S17G28    29.98R
MONTICELLO +   CLOUDY    53  44  71 S6        30.04R
6HR MIN TEMP:  45; 6HR MAX TEMP:  53;

RENSSELAER +   CLOUDY    52  45  76 S12       30.03R
VALPARAISO     PTCLDY    51  43  74 S13       29.99R
6HR MIN TEMP:  47; 6HR MAX TEMP:  51;


$$

LMZ046-743>745-241300-
SOUTHERN LAKE MICHIGAN

STATION/POSITION TIME  TEMP    WIND        PRES    WAVE
                       AIR SEA DIR/SP/G            HT
                 (UTC) (F)     (DEG/KT/KT) (MB)    (FT)
BURNS HARBOR     1140   53     190/ 22/ 28 1014.6R
MICHIGAN CITY    1140   54     170/ 21/ 25   N/A

$$

INZ004-005-014>016-021>024-241300-
NORTH CENTRAL INDIANA

CITY           SKY/WX    TMP DP  RH WIND       PRES   REMARKS
ELKHART        CLOUDY    48  39  71 S7        30.01R
GOSHEN         CLOUDY    51  39  63 S10       30.02R
6HR MIN TEMP:  49; 6HR MAX TEMP:  51;

LOGANSPORT +   PTCLDY    48  41  76 S8        30.06R
PERU/GRISSOM   CLOUDY    51  45  80 S8        30.05R
6HR MIN TEMP:  45; 6HR MAX TEMP:  52;

ROCHESTER +    CLOUDY    52  41  66 S8        30.04R
SOUTH BEND     CLOUDY    49  41  74 S9        30.01R
6HR MIN TEMP:  45; 6HR MAX TEMP:  49;

WARSAW +       PTCLDY    50  39  66 S7        30.04R

$$

INZ006>009-017-018-025>027-241300-
NORTHEAST INDIANA

CITY           SKY/WX    TMP DP  RH WIND       PRES   REMARKS
ANGOLA *+      CLEAR     50  39  66 S9        30.03R
AUBURN +       PTCLDY    50  41  71 S6        30.06R
FORT WAYNE     CLOUDY    51  42  71 S12       30.08R
6HR MIN TEMP:  45; 6HR MAX TEMP:  51; 6HR PCP: TRACE;

HUNTINGTON +   CLOUDY    51  43  73 S9        30.06R
6HR MIN TEMP:  41; 6HR MAX TEMP:  51;

KENDALLVILLE + PTCLDY    50  41  71 S13       30.04R

$$

INZ028-029-035-036-043>045-051>053-241300-
WEST CENTRAL INDIANA

CITY           SKY/WX    TMP DP  RH WIND       PRES   REMARKS
CRAWFORDSVL +  MOCLDY    54  47  77 S15       30.06R
6HR MIN TEMP:  49; 6HR MAX TEMP:  55;

GREENCASTLE +  CLEAR     57  46  67 SW9G16    30.08R
LAFAYETTE      CLOUDY    56  46  69 S8        30.04R
6HR MIN TEMP:  50; 6HR MAX TEMP:  56;

TERRE HAUTE    CLOUDY    58  48  69 S17G25    30.07R
6HR MIN TEMP:  54; 6HR MAX TEMP:  59;


$$

INZ030>032-037>040-046>048-054>057-064-065-241300-
CENTRAL INDIANA

CITY           SKY/WX    TMP DP  RH WIND       PRES   REMARKS
CP ATTERBURY + CLOUDY    52  43  71 SE6       30.12R
COLUMBUS       CLEAR     50  45  81 S9        30.13R
FRANKFORT +    CLOUDY    58  49  73 SW10G22   30.07R
6HR MIN TEMP:  49; 6HR MAX TEMP:  58;

GREENWOOD *+   PTCLDY    54  46  73 S8        30.10R
6HR MIN TEMP:  49; 6HR MAX TEMP:  56;

INDIANAPOLIS   MOCLDY    54  45  71 S9        30.09R
6HR MIN TEMP:  52; 6HR MAX TEMP:  56;

-EAGLE CREEK   CLOUDY    55  44  66 S6        30.08R
6HR MIN TEMP:  52; 6HR MAX TEMP:  56;

KOKOMO +       MOCLDY    48  42  80 S10       30.08R
6HR MIN TEMP:  44; 6HR MAX TEMP:  50;

MARION +       PTCLDY    50  43  75 S14       30.09R
MT COMFORT *+  PTCLDY    50  43  76 S8        30.10R
SHELBYVILLE    CLOUDY    54  42  64 S17       30.11R
6HR MIN TEMP:  51; 6HR MAX TEMP:  54;

ZIONSVILLE +   CLOUDY    51  44  78 S8        30.08R
6HR MIN TEMP:  48; 6HR MAX TEMP:  51;


$$

INZ033-034-041-042-049-050-058-059-241300-
EAST CENTRAL INDIANA

CITY           SKY/WX    TMP DP  RH WIND       PRES   REMARKS
MUNCIE         CLOUDY    55  43  63 S10G18    30.10R
6HR MIN TEMP:  54; 6HR MAX TEMP:  56;

RICHMOND +     MOCLDY    46  41  81 S14       30.14R

$$

INZ060-061-067>069-081>083-085>088-241300-
SOUTHWEST INDIANA

CITY           SKY/WX    TMP DP  RH WIND       PRES   REMARKS
EVANSVILLE     CLEAR     58  50  75 S9        30.11R
6HR MIN TEMP:  52; 6HR MAX TEMP:  58;

HUNTINGBURG *+ CLEAR     58  49  72 S15       30.14R
6HR MIN TEMP:  55; 6HR MAX TEMP:  58;

WASHINGTON +   CLEAR     57  47  68 CALM      30.10R
6HR MIN TEMP:  51; 6HR MAX TEMP:  58;


$$

INZ062-063-066-070>080-084-089>092-241300-
SOUTH CENTRAL AND SOUTHEAST INDIANA

CITY           SKY/WX    TMP DP  RH WIND       PRES   REMARKS
BEDFORD +      CLEAR     55  43  62 S7        30.13R
BLOOMINGTON    PTCLDY    59  47  64 S16       30.10R
6HR MIN TEMP:  50; 6HR MAX TEMP:  60;

MADISON *+     CLEAR     55  41  58 S17       30.18R
NORTH VERNON + CLEAR     55  41  58 S12G17    30.14R
SEYMOUR +      CLEAR     55  45  67 S14       30.14R

$$





USA.gov is the U.S. government's official web portal to all federal, state and local government web resources and services.